Submittal Forms
Current Contests
Recent Contests

Club Activity Tracker - Swamp Fox Contest Group (from club selection on form)

Recent postings for the selected club or group are listed below. Other than the call used, all calls listed are only those associated with the club or group. Click on a call to see the details of the posting.
Status Key: new=new posting, update=update prior posting, move=change club/group, delete=delete prior posting.

Sort by   for past

TimestampCallContestClassPowerScoreStatus
2021-05-14 14:28:28WN4AFPCWopsTSingle OpLP1,890new6421
2021-05-13 14:22:11WB4HRLCWopsTSingle OpLP2,842new6421
2021-05-13 14:20:52WB4HRLCWopsTSingle OpLP2,601new6419
2021-05-12 20:03:27N4IQCWopsTSingle OpHP11,663new6420
2021-05-12 14:08:27N4IQCWopsTSingle OpHP11,449new6419
2021-05-10 20:35:29N4IQVolta RTTYSOABHP4,586,890new6411
2021-05-10 01:39:26K7OMVolta RTTYSOABHP1,202,920new6411
2021-05-09 16:51:13KG4IGCVolta RTTYSOABLP5,869,716new6411
2021-05-09 16:48:55K3DNEArQPSOSSBHP30new6413
2021-05-09 16:47:46K3DNE50SprngSprntSingle OpHP306new6414
 
2021-05-09 02:02:31WN4AFPArQPSOMixedLP1,288new6413
2021-05-08 22:39:30K4QQGArQPSOSSBLP405new6413
2021-05-06 15:39:57WB4HRLCWopsTSingle OpLP2,450new6404
2021-05-06 15:38:49WB4HRLCWopsTSingle OpLP3,136new6403
2021-05-06 15:37:34WB4HRLCWopsTSingle OpLP3,843new6402
2021-05-05 20:03:23N4IQCWopsTSingle OpHP12,768new6403
2021-05-05 14:08:29N4IQCWopsTSingle OpHP13,923new6402
2021-05-05 11:30:45WB4HRLNewEngQPSingle OpHP10,692new6397
2021-05-05 11:25:40WB4HRL7QPSO(A)MixedHP2,496new6394
2021-05-04 01:49:44WB4HRLInQPSingle OpHP24update6395
 
2021-05-03 16:27:15WN4AFPNewEngQPSingle OpLP18,338new6397
2021-05-03 16:02:24KG4IGCNewEngQPSingle OpLP9,660new6397
2021-05-03 16:02:12WN4AFPInQPSingle OpLP1,848new6395
2021-05-03 16:01:18KG4IGCInQPSingle OpLP300new6395
2021-05-03 15:59:46KG4IGCDeQPSingle OpLP200new6396
2021-05-03 15:58:38KG4IGC7QPSO(A)MixedLP13,621new6394
2021-05-03 15:58:20WN4AFP7QPSO(A)MixedLP407new6394
2021-05-03 15:44:02WN4AFPDeQPSingle OpLP720new6396
2021-05-02 23:48:46K3DNEInQPSingle OpHP1,053new6395
2021-05-02 23:47:21K3DNENewEngQPSingle OpHP8,557new6397
 
2021-05-02 23:46:12K3DNEDeQPSingle OpHP120new6396
2021-05-02 23:44:46K3DNE7QPSO(A)MixedHP4,551new6394
2021-05-02 23:34:48N2OGNewEngQPSingle OpLP14,520new6397
2021-05-02 23:01:54K4QQGNewEngQPSingle OpLP2,072new6397
2021-05-02 20:06:22K4QQGInQPSingle OpLP144new6395
2021-05-02 20:02:53K4QQG7QPSOSSBLP1,400new6394
2021-05-02 18:39:16K7OMARISO RTTYHP8,880new6393
2021-04-29 22:20:56WB4HRLCWopsTSingle OpLP2,025new6386
2021-04-29 22:19:13WB4HRLCWopsTSingle OpHP1,225new6385
2021-04-29 22:17:19WB4HRLCWopsTSingle OpHP3,025new6384
 
2021-04-28 01:21:59WN4AFPFlQPSOAB(A)MixedLP109,416new6375
2021-04-26 21:20:22K3DNEFlQPSOAB(A)MixedHP1,620new6375
2021-04-26 20:48:00WB4HRLFlQPSOAB(A)MixedHP10,620new6375
2021-04-26 20:44:49WB4HRLSPDX RTTYSOABHP2,834new6372
2021-04-25 21:32:27N4IQSPDX RTTYSOABHP11,040new6372
2021-04-25 21:28:33N4IQBARTG 75Single OpHP768new6374
2021-04-25 20:58:10KG4IGCSPDX RTTYSOABLP42,666new6372
2021-04-25 20:36:58K4QQGFlQPSOABSSBLP735new6375
2021-04-25 14:26:51K7OMSPDX RTTYSOABHP47,120new6372
2021-04-22 13:06:10WB4HRLCWopsTSingle OpHP2,809new6366
 
2021-04-22 13:05:07WB4HRLCWopsTSingle OpHP2,500new6365
2021-04-22 13:03:26WB4HRLCWopsTSingle OpHP2,916new6364
2021-04-21 20:07:11N4IQCWopsTSingle OpHP11,556new6365
2021-04-20 15:57:46K7OMCQMM DXSOABHP22,416update6356
2021-04-19 17:28:38N4IQCQMM DXSOABHP86,043new6356
2021-04-19 15:11:17K3DNEOnQPSO SSBHP480new5642
2021-04-19 15:09:53K3DNEMiQPSingle OpHP170new6357
2021-04-19 01:47:22K4QQGMiQPSingle OpLP432update6357
2021-04-18 19:55:23WN4AFPOnQPSO MixedLP13,965new5642
2021-04-18 19:49:26K4QQGOnQPSO SSBLP480new5642
 
2021-04-18 19:28:01WN4AFPMiQPSingle OpLP592new6357
2021-04-18 04:09:25N4XLMiQPSingle OpLP22,032new6357
2021-04-18 00:17:08N2OGPACCdigiSOABLP510new6359
2021-04-15 11:42:50WB4HRLCWopsTSingle OpHP3,904new6347
2021-04-15 11:41:32WB4HRLCWopsTSingle OpHP1,225new6346
2021-04-15 11:40:06WB4HRLCWopsTSingle OpHP2,550new